Time,TemperatureF,DewpointF,PressureIn,WindDirection,WindDirectionDegrees,WindSpeedMPH,WindSpeedGustMPH,Humidity,HourlyPrecipIn,Conditions,Clouds,dailyrainin,SoftwareType,DateUTC
2013-03-08 00:04:00,19.9,12.7,30.32,ESE,115,6.4,6.4,73,0.00,,SKC,0.00,VWS V14.01,2013-03-08 06:04:00,
2013-03-08 00:09:00,19.6,12.4,30.32,SE,146,4.8,4.8,73,0.00,,SKC,0.00,VWS V14.01,2013-03-08 06:09:00,
2013-03-08 00:14:00,19.6,12.4,30.32,SE,140,5.6,5.6,73,0.00,,SKC,0.00,VWS V14.01,2013-03-08 06:14:00,
2013-03-08 00:19:00,19.6,12.6,30.32,SE,124,5.6,6.4,74,0.00,,SKC,0.00,VWS V14.01,2013-03-08 06:19:00,
2013-03-08 00:24:00,20.1,13.5,30.32,SSE,151,6.4,6.4,75,0.00,,SKC,0.00,VWS V14.01,2013-03-08 06:24:00,
2013-03-08 00:29:00,20.1,13.2,30.32,SSE,156,6.4,6.4,74,0.00,,SKC,0.00,VWS V14.01,2013-03-08 06:29:00,
2013-03-08 00:34:00,19.9,12.7,30.32,East,81,4.0,4.8,73,0.00,,SKC,0.00,VWS V14.01,2013-03-08 06:34:00,
2013-03-08 00:39:00,19.8,12.5,30.32,ESE,123,0.0,0.0,73,0.00,,SKC,0.00,VWS V14.01,2013-03-08 06:39:00,
2013-03-08 00:44:00,19.6,12.4,30.32,SE,139,13.7,13.7,73,0.00,,SKC,0.00,VWS V14.01,2013-03-08 06:44:00,
2013-03-08 00:49:00,19.4,12.5,30.32,ESE,114,4.8,6.4,74,0.00,,SKC,0.00,VWS V14.01,2013-03-08 06:49:00,
2013-03-08 00:54:00,19.2,12.3,30.32,SSE,147,6.4,6.4,74,0.00,,SKC,0.00,VWS V14.01,2013-03-08 06:54:00,
2013-03-08 00:59:00,19.4,12.8,30.32,ESE,123,14.5,14.5,75,0.00,,SKC,0.00,VWS V14.01,2013-03-08 06:59:00,
2013-03-08 01:04:00,19.4,12.8,30.32,SE,136,4.0,7.2,75,0.00,,SKC,0.00,VWS V14.01,2013-03-08 07:04:00,
2013-03-08 01:09:00,19.0,12.4,30.32,SSE,164,0.0,0.0,75,0.00,,SKC,0.00,VWS V14.01,2013-03-08 07:09:00,
2013-03-08 01:14:00,19.2,12.6,30.32,South,172,7.2,8.9,75,0.00,,SKC,0.00,VWS V14.01,2013-03-08 07:14:00,
2013-03-08 01:19:00,19.4,12.8,30.32,South,190,5.6,7.2,75,0.00,,SKC,0.00,VWS V14.01,2013-03-08 07:19:00,
2013-03-08 01:24:00,19.0,12.4,30.32,ESE,114,11.3,11.3,75,0.00,,SKC,0.00,VWS V14.01,2013-03-08 07:24:00,
2013-03-08 01:29:00,19.2,12.9,30.32,SE,126,5.6,5.6,76,0.00,,SKC,0.00,VWS V14.01,2013-03-08 07:29:00,
2013-03-08 01:34:00,19.0,12.7,30.32,SE,130,6.4,8.9,76,0.00,,SKC,0.00,VWS V14.01,2013-03-08 07:34:00,
2013-03-08 01:39:00,19.0,12.7,30.32,ESE,118,8.9,8.9,76,0.00,,SKC,0.00,VWS V14.01,2013-03-08 07:39:00,
2013-03-08 01:44:00,18.5,11.9,30.32,SSE,163,0.0,4.8,75,0.00,,SKC,0.00,VWS V14.01,2013-03-08 07:44:00,
2013-03-08 01:49:00,18.5,11.9,30.32,ESE,119,0.0,4.8,75,0.00,,SKC,0.00,VWS V14.01,2013-03-08 07:49:00,
2013-03-08 01:54:00,18.3,12.0,30.32,ESE,113,4.0,5.6,76,0.00,,SKC,0.00,VWS V14.01,2013-03-08 07:54:00,
2013-03-08 01:59:00,18.0,11.7,30.32,ESE,112,5.6,5.6,76,0.00,,SKC,0.00,VWS V14.01,2013-03-08 07:59:00,
2013-03-08 02:04:00,17.6,11.3,30.32,ESE,110,4.0,5.6,76,0.00,,SKC,0.00,VWS V14.01,2013-03-08 08:04:00,
2013-03-08 02:09:00,17.4,10.9,30.32,ESE,110,0.0,0.0,75,0.00,,SKC,0.00,VWS V14.01,2013-03-08 08:09:00,
2013-03-08 02:14:00,17.1,10.8,30.32,SE,125,4.8,8.9,76,0.00,,SKC,0.00,VWS V14.01,2013-03-08 08:14:00,
2013-03-08 02:19:00,16.9,10.6,30.32,East,101,0.0,0.0,76,0.00,,SKC,0.00,VWS V14.01,2013-03-08 08:19:00,
2013-03-08 02:24:00,16.9,10.6,30.32,East,89,7.2,7.2,76,0.00,,SKC,0.00,VWS V14.01,2013-03-08 08:24:00,
2013-03-08 02:29:00,16.5,10.3,30.32,East,100,6.4,10.5,76,0.00,,SKC,0.00,VWS V14.01,2013-03-08 08:29:00,
2013-03-08 02:34:00,16.2,9.9,30.32,ESE,107,4.8,10.5,76,0.00,,SKC,0.00,VWS V14.01,2013-03-08 08:34:00,
2013-03-08 02:39:00,16.0,9.8,30.32,ESE,120,10.5,10.5,76,0.00,,SKC,0.00,VWS V14.01,2013-03-08 08:39:00,
2013-03-08 02:44:00,15.8,9.9,30.32,ESE,113,6.4,7.2,77,0.00,,SKC,0.00,VWS V14.01,2013-03-08 08:44:00,
2013-03-08 02:49:00,15.4,9.2,30.32,East,101,6.4,7.2,76,0.00,,SKC,0.00,VWS V14.01,2013-03-08 08:49:00,
2013-03-08 02:54:00,15.3,9.1,30.32,SE,132,7.2,7.2,76,0.00,,SKC,0.00,VWS V14.01,2013-03-08 08:54:00,
2013-03-08 02:59:00,15.1,9.2,30.32,ESE,114,4.0,6.4,77,0.00,,SKC,0.00,VWS V14.01,2013-03-08 08:59:00,
2013-03-08 03:04:00,15.1,9.2,30.32,ESE,107,5.6,7.2,77,0.00,,SKC,0.00,VWS V14.01,2013-03-08 09:04:00,
2013-03-08 03:10:00,15.3,9.4,30.32,ESE,105,5.6,9.7,77,0.00,,SKC,0.00,VWS V14.01,2013-03-08 09:10:00,
2013-03-08 03:15:00,15.4,9.8,30.32,ESE,117,4.8,7.2,78,0.00,,SKC,0.00,VWS V14.01,2013-03-08 09:15:00,
2013-03-08 03:20:00,15.8,10.2,30.32,ESE,122,4.8,4.8,78,0.00,,SKC,0.00,VWS V14.01,2013-03-08 09:20:00,
2013-03-08 03:25:00,16.0,10.4,30.32,East,93,9.7,9.7,78,0.00,,SKC,0.00,VWS V14.01,2013-03-08 09:25:00,
2013-03-08 03:30:00,16.2,10.5,30.32,ESE,114,4.8,9.7,78,0.00,,SKC,0.00,VWS V14.01,2013-03-08 09:30:00,
2013-03-08 03:35:00,16.2,10.8,30.32,East,100,4.8,6.4,79,0.00,,SKC,0.00,VWS V14.01,2013-03-08 09:35:00,
2013-03-08 03:40:00,16.0,10.4,30.32,ESE,108,7.2,7.2,78,0.00,,SKC,0.00,VWS V14.01,2013-03-08 09:40:00,
2013-03-08 03:45:00,15.6,10.0,30.32,ESE,109,7.2,10.5,78,0.00,,SKC,0.00,VWS V14.01,2013-03-08 09:45:00,
2013-03-08 03:50:00,15.4,9.5,30.32,ESE,114,10.5,10.5,77,0.00,,SKC,0.00,VWS V14.01,2013-03-08 09:50:00,
2013-03-08 03:55:00,15.4,9.5,30.32,SE,127,0.0,0.0,77,0.00,,SKC,0.00,VWS V14.01,2013-03-08 09:55:00,
2013-03-08 04:00:00,15.6,10.0,30.32,SE,128,0.0,8.1,78,0.00,,SKC,0.00,VWS V14.01,2013-03-08 10:00:00,
2013-03-08 04:05:00,15.6,10.0,30.32,ESE,107,9.7,9.7,78,0.00,,SKC,0.00,VWS V14.01,2013-03-08 10:05:00,
2013-03-08 04:10:00,15.6,10.3,30.32,SE,130,0.0,0.0,79,0.00,,SKC,0.00,VWS V14.01,2013-03-08 10:10:00,
2013-03-08 04:15:00,15.6,10.0,30.32,East,87,4.8,4.8,78,0.00,,SKC,0.00,VWS V14.01,2013-03-08 10:15:00,
2013-03-08 04:20:00,15.6,10.0,30.29,ESE,120,0.0,0.0,78,0.00,,SKC,0.00,VWS V14.01,2013-03-08 10:20:00,
2013-03-08 04:25:00,15.6,10.0,30.29,ESE,117,7.2,7.2,78,0.00,,SKC,0.00,VWS V14.01,2013-03-08 10:25:00,
2013-03-08 04:30:00,15.8,10.5,30.29,ESE,119,4.0,4.8,79,0.00,,SKC,0.00,VWS V14.01,2013-03-08 10:30:00,
2013-03-08 04:35:00,16.2,10.8,30.29,ESE,116,0.0,0.0,79,0.00,,SKC,0.00,VWS V14.01,2013-03-08 10:35:00,
2013-03-08 04:40:00,16.2,10.8,30.29,ESE,119,0.0,0.0,79,0.00,,SKC,0.00,VWS V14.01,2013-03-08 10:40:00,
2013-03-08 04:45:00,16.2,10.8,30.29,SE,133,7.2,7.2,79,0.00,,SKC,0.00,VWS V14.01,2013-03-08 10:45:00,
2013-03-08 04:50:00,16.0,10.6,30.29,SE,134,4.8,7.2,79,0.00,,SKC,0.00,VWS V14.01,2013-03-08 10:50:00,
2013-03-08 04:55:00,16.0,10.6,30.29,SSE,164,0.0,4.0,79,0.00,,SKC,0.00,VWS V14.01,2013-03-08 10:55:00,
2013-03-08 05:00:00,16.2,10.8,30.29,ESE,115,5.6,5.6,79,0.00,,SKC,0.00,VWS V14.01,2013-03-08 11:00:00,
2013-03-08 05:05:00,16.3,11.3,30.29,South,171,8.9,8.9,80,0.00,,SKC,0.00,VWS V14.01,2013-03-08 11:05:00,
2013-03-08 05:10:00,16.2,10.8,30.29,ESE,120,0.0,4.8,79,0.00,,SKC,0.00,VWS V14.01,2013-03-08 11:10:00,
2013-03-08 05:15:00,16.2,10.8,30.29,ESE,122,8.1,8.1,79,0.00,,SKC,0.00,VWS V14.01,2013-03-08 11:15:00,
2013-03-08 05:20:00,16.2,10.8,30.29,SSE,156,5.6,5.6,79,0.00,,SKC,0.00,VWS V14.01,2013-03-08 11:20:00,
2013-03-08 05:25:00,16.2,10.8,30.29,ESE,117,10.5,10.5,79,0.00,,SKC,0.00,VWS V14.01,2013-03-08 11:25:00,
2013-03-08 05:30:00,16.2,10.8,30.29,ESE,120,0.0,5.6,79,0.00,,SKC,0.00,VWS V14.01,2013-03-08 11:30:00,
2013-03-08 05:35:00,16.0,10.6,30.32,SE,125,0.0,0.0,79,0.00,,SKC,0.00,VWS V14.01,2013-03-08 11:35:00,
2013-03-08 05:40:00,16.2,10.8,30.32,SE,136,6.4,10.5,79,0.00,,SKC,0.00,VWS V14.01,2013-03-08 11:40:00,
2013-03-08 05:46:00,16.5,11.4,30.32,East,84,4.0,5.6,80,0.00,,SKC,0.00,VWS V14.01,2013-03-08 11:46:00,
2013-03-08 05:51:00,16.3,11.0,30.32,SE,129,4.0,9.7,79,0.00,,SKC,0.00,VWS V14.01,2013-03-08 11:51:00,
2013-03-08 05:56:00,16.2,10.8,30.32,SE,135,7.2,7.2,79,0.00,,SKC,0.00,VWS V14.01,2013-03-08 11:56:00,
2013-03-08 06:01:00,16.2,10.8,30.32,SE,134,7.2,7.2,79,0.00,,SKC,0.00,VWS V14.01,2013-03-08 12:01:00,
2013-03-08 06:06:00,16.3,11.0,30.29,ESE,122,4.8,5.6,79,0.00,,SKC,0.00,VWS V14.01,2013-03-08 12:06:00,
2013-03-08 06:11:00,16.5,11.2,30.29,SE,138,4.8,5.6,79,0.00,,SKC,0.00,VWS V14.01,2013-03-08 12:11:00,
2013-03-08 06:16:00,16.5,11.2,30.29,SE,124,8.9,8.9,79,0.00,,SKC,0.00,VWS V14.01,2013-03-08 12:16:00,
2013-03-08 06:21:00,16.7,11.3,30.29,ESE,106,4.8,6.4,79,0.00,,SKC,0.00,VWS V14.01,2013-03-08 12:21:00,
2013-03-08 06:26:00,16.7,11.3,30.29,ESE,111,5.6,5.6,79,0.00,,SKC,0.00,VWS V14.01,2013-03-08 12:26:00,
2013-03-08 06:31:00,16.7,11.3,30.29,East,92,5.6,5.6,79,0.00,,SKC,0.00,VWS V14.01,2013-03-08 12:31:00,
2013-03-08 06:36:00,16.7,11.3,30.29,ESE,115,5.6,7.2,79,0.00,,SKC,0.00,VWS V14.01,2013-03-08 12:36:00,
2013-03-08 06:41:00,16.7,11.3,30.29,ESE,105,4.8,9.7,79,0.00,,SKC,0.00,VWS V14.01,2013-03-08 12:41:00,
2013-03-08 06:46:00,17.1,12.0,30.29,ESE,114,6.4,7.2,80,0.00,,SKC,0.00,VWS V14.01,2013-03-08 12:46:00,
2013-03-08 06:51:00,17.1,12.0,30.29,ESE,122,7.2,7.2,80,0.00,,SKC,0.00,VWS V14.01,2013-03-08 12:51:00,
2013-03-08 06:56:00,17.4,12.3,30.29,SE,132,7.2,11.3,80,0.00,,SKC,0.00,VWS V14.01,2013-03-08 12:56:00,
2013-03-08 07:01:00,17.6,12.5,30.29,SE,126,7.2,7.2,80,0.00,,SKC,0.00,VWS V14.01,2013-03-08 13:01:00,
2013-03-08 07:07:00,17.8,12.4,30.29,SE,140,10.5,10.5,79,0.00,,SKC,0.00,VWS V14.01,2013-03-08 13:07:00,
2013-03-08 07:12:00,18.1,12.7,30.29,SE,129,9.7,11.3,79,0.00,,SKC,0.00,VWS V14.01,2013-03-08 13:12:00,
2013-03-08 07:17:00,18.3,12.9,30.29,SE,142,4.8,6.4,79,0.00,,SKC,0.00,VWS V14.01,2013-03-08 13:17:00,
2013-03-08 07:23:00,18.7,13.0,30.29,SSE,155,0.0,7.2,78,0.00,,SKC,0.00,VWS V14.01,2013-03-08 13:23:00,
2013-03-08 07:28:00,19.0,13.3,30.29,ESE,115,0.0,5.6,78,0.00,,SKC,0.00,VWS V14.01,2013-03-08 13:28:00,
2013-03-08 07:33:00,19.2,13.2,30.29,SSE,149,9.7,9.7,77,0.00,,SKC,0.00,VWS V14.01,2013-03-08 13:33:00,
2013-03-08 07:38:00,19.4,13.4,30.29,SE,146,6.4,10.5,77,0.00,,SKC,0.00,VWS V14.01,2013-03-08 13:38:00,
2013-03-08 07:43:00,19.6,13.3,30.29,SE,128,7.2,7.2,76,0.00,,SKC,0.00,VWS V14.01,2013-03-08 13:43:00,
2013-03-08 07:48:00,19.8,13.1,30.29,East,99,11.3,11.3,75,0.00,,SKC,0.00,VWS V14.01,2013-03-08 13:48:00,
2013-03-08 07:53:00,19.9,13.0,30.29,SSE,151,9.7,11.3,74,0.00,,SKC,0.00,VWS V14.01,2013-03-08 13:53:00,
2013-03-08 07:59:00,20.3,13.0,30.29,SE,132,9.7,14.9,73,0.00,,SKC,0.00,VWS V14.01,2013-03-08 13:59:00,
2013-03-08 08:05:00,20.8,13.2,30.29,SSE,166,10.5,11.3,72,0.00,,SKC,0.00,VWS V14.01,2013-03-08 14:05:00,
2013-03-08 08:10:00,21.2,13.3,30.29,SSE,151,5.6,8.9,71,0.00,,SKC,0.00,VWS V14.01,2013-03-08 14:10:00,
2013-03-08 08:15:00,21.4,12.8,30.29,South,173,7.2,7.2,69,0.00,,SKC,0.00,VWS V14.01,2013-03-08 14:15:00,
2013-03-08 08:21:00,21.7,12.8,30.29,SE,131,12.9,12.9,68,0.00,,SKC,0.00,VWS V14.01,2013-03-08 14:21:00,
2013-03-08 08:26:00,21.9,13.0,30.29,SE,131,5.6,7.2,68,0.00,,SKC,0.00,VWS V14.01,2013-03-08 14:26:00,
2013-03-08 08:32:00,22.8,13.5,30.29,SE,130,0.0,5.6,67,0.00,,SKC,0.00,VWS V14.01,2013-03-08 14:32:00,
2013-03-08 08:37:00,23.5,13.9,30.29,SE,134,5.6,11.3,66,0.00,,SKC,0.00,VWS V14.01,2013-03-08 14:37:00,
2013-03-08 08:42:00,24.4,14.4,30.29,SE,131,6.4,10.5,65,0.00,,SKC,0.00,VWS V14.01,2013-03-08 14:42:00,
2013-03-08 08:47:00,24.4,13.7,30.29,SSE,163,0.0,9.7,63,0.00,,SKC,0.00,VWS V14.01,2013-03-08 14:47:00,
2013-03-08 08:53:00,24.6,13.8,30.29,South,183,0.0,7.2,63,0.00,,SKC,0.00,VWS V14.01,2013-03-08 14:53:00,
2013-03-08 08:58:00,25.9,14.3,30.29,SSE,152,9.7,9.7,61,0.00,,SKC,0.00,VWS V14.01,2013-03-08 14:58:00,
2013-03-08 09:04:00,25.9,14.3,30.29,SSE,150,8.9,8.9,61,0.00,,SKC,0.00,VWS V14.01,2013-03-08 15:04:00,
2013-03-08 09:10:00,27.3,15.7,30.29,SSE,159,8.9,8.9,61,0.00,,SKC,0.00,VWS V14.01,2013-03-08 15:10:00,
2013-03-08 09:15:00,28.0,16.3,30.29,SSE,151,5.6,8.9,61,0.00,,SKC,0.00,VWS V14.01,2013-03-08 15:15:00,
2013-03-08 09:21:00,29.3,16.4,30.29,ESE,111,5.6,9.7,58,0.00,,SKC,0.00,VWS V14.01,2013-03-08 15:21:00,
2013-03-08 09:26:00,29.7,16.7,30.29,ESE,123,15.7,15.7,58,0.00,,SKC,0.00,VWS V14.01,2013-03-08 15:26:00,
2013-03-08 09:32:00,30.6,17.1,30.29,SE,131,6.4,10.5,57,0.00,,SKC,0.00,VWS V14.01,2013-03-08 15:32:00,
2013-03-08 09:37:00,31.5,17.6,30.29,SE,140,9.7,11.3,56,0.00,,SKC,0.00,VWS V14.01,2013-03-08 15:37:00,
2013-03-08 09:43:00,32.5,17.8,30.29,South,169,9.7,9.7,54,0.00,,SKC,0.00,VWS V14.01,2013-03-08 15:43:00,
2013-03-08 09:48:00,32.9,17.7,30.29,SE,145,5.6,11.3,53,0.00,,SKC,0.00,VWS V14.01,2013-03-08 15:48:00,
2013-03-08 09:53:00,33.4,17.7,30.29,SSW,192,9.7,18.9,52,0.00,,SKC,0.00,VWS V14.01,2013-03-08 15:53:00,
2013-03-08 09:58:00,34.5,18.7,30.29,SSE,158,14.9,19.7,52,0.00,,SKC,0.00,VWS V14.01,2013-03-08 15:58:00,
2013-03-08 10:03:00,34.0,17.8,30.29,SSE,158,5.6,8.9,51,0.00,,SKC,0.00,VWS V14.01,2013-03-08 16:03:00,
2013-03-08 10:08:00,34.0,17.8,30.29,South,171,14.9,14.9,51,0.00,,SKC,0.00,VWS V14.01,2013-03-08 16:08:00,
2013-03-08 10:13:00,34.3,18.1,30.29,South,170,19.7,19.7,51,0.00,,SKC,0.00,VWS V14.01,2013-03-08 16:13:00,
2013-03-08 10:18:00,34.5,18.3,30.29,SSE,151,8.9,8.9,51,0.00,,SKC,0.00,VWS V14.01,2013-03-08 16:18:00,
2013-03-08 10:23:00,33.8,17.6,30.29,East,96,7.2,14.5,51,0.00,,SKC,0.00,VWS V14.01,2013-03-08 16:23:00,
2013-03-08 10:28:00,33.6,17.4,30.29,South,191,14.9,14.9,51,0.00,,SKC,0.00,VWS V14.01,2013-03-08 16:28:00,
2013-03-08 10:33:00,33.4,17.3,30.29,South,186,14.9,14.9,51,0.00,,SKC,0.00,VWS V14.01,2013-03-08 16:33:00,
2013-03-08 10:38:00,33.8,17.6,30.29,South,183,6.4,14.5,51,0.00,,SKC,0.00,VWS V14.01,2013-03-08 16:38:00,
2013-03-08 10:43:00,33.4,17.3,30.29,South,189,6.4,15.7,51,0.00,,SKC,0.00,VWS V14.01,2013-03-08 16:43:00,
2013-03-08 10:48:00,33.8,17.6,30.29,SSW,192,7.2,11.3,51,0.00,,SKC,0.00,VWS V14.01,2013-03-08 16:48:00,
2013-03-08 10:53:00,34.3,18.1,30.32,SSE,168,9.7,13.7,51,0.00,,SKC,0.00,VWS V14.01,2013-03-08 16:53:00,
2013-03-08 10:58:00,34.0,18.2,30.32,SE,140,6.4,14.5,52,0.00,,SKC,0.00,VWS V14.01,2013-03-08 16:58:00,
2013-03-08 11:03:00,34.0,17.8,30.32,SSW,193,11.3,11.3,51,0.00,,SKC,0.00,VWS V14.01,2013-03-08 17:03:00,
2013-03-08 11:08:00,34.3,18.5,30.29,SSE,154,13.7,15.7,52,0.00,,SKC,0.00,VWS V14.01,2013-03-08 17:08:00,
2013-03-08 11:13:00,34.5,18.7,30.29,SSE,155,10.5,13.7,52,0.00,,SKC,0.00,VWS V14.01,2013-03-08 17:13:00,
2013-03-08 11:18:00,34.7,18.4,30.29,SE,124,7.2,13.7,51,0.00,,SKC,0.00,VWS V14.01,2013-03-08 17:18:00,
2013-03-08 11:23:00,34.9,19.1,30.29,SE,127,9.7,15.7,52,0.00,,SKC,0.00,VWS V14.01,2013-03-08 17:23:00,
2013-03-08 11:28:00,34.9,19.1,30.29,SE,143,11.3,13.7,52,0.00,,SKC,0.00,VWS V14.01,2013-03-08 17:28:00,
2013-03-08 11:33:00,35.4,19.6,30.29,South,184,14.5,14.5,52,0.00,,SKC,0.00,VWS V14.01,2013-03-08 17:33:00,
2013-03-08 11:38:00,35.8,19.0,30.29,East,94,7.2,14.9,50,0.04,,SKC,0.04,VWS V14.01,2013-03-08 17:38:00,
2013-03-08 11:43:00,35.8,19.0,30.29,SE,145,10.5,14.9,50,0.04,,SKC,0.04,VWS V14.01,2013-03-08 17:43:00,
2013-03-08 11:48:00,36.1,19.3,30.29,South,176,15.7,15.7,50,0.04,,SKC,0.04,VWS V14.01,2013-03-08 17:48:00,
2013-03-08 11:54:00,36.3,19.5,30.29,SE,133,11.3,11.3,50,0.04,,SKC,0.04,VWS V14.01,2013-03-08 17:54:00,
2013-03-08 11:59:00,37.0,20.1,30.29,ESE,120,4.8,14.5,50,0.04,,SKC,0.04,VWS V14.01,2013-03-08 17:59:00,
2013-03-08 12:04:00,37.6,20.2,30.29,South,175,13.7,13.7,49,0.04,,SKC,0.04,VWS V14.01,2013-03-08 18:04:00,
2013-03-08 12:09:00,37.8,20.3,30.29,South,187,6.4,11.3,49,0.04,,SKC,0.04,VWS V14.01,2013-03-08 18:09:00,
2013-03-08 12:14:00,37.6,19.7,30.29,SSE,163,5.6,13.7,48,0.04,,SKC,0.04,VWS V14.01,2013-03-08 18:14:00,
2013-03-08 12:19:00,38.3,20.4,30.29,SE,141,10.5,19.7,48,0.04,,SKC,0.04,VWS V14.01,2013-03-08 18:19:00,
2013-03-08 12:24:00,37.4,19.0,30.26,SSE,168,9.7,11.3,47,0.04,,SKC,0.04,VWS V14.01,2013-03-08 18:24:00,
2013-03-08 12:29:00,35.4,19.6,30.26,SE,142,14.9,14.9,52,0.04,,SKC,0.04,VWS V14.01,2013-03-08 18:29:00,
2013-03-08 12:34:00,34.9,19.5,30.26,East,99,18.9,18.9,53,0.04,,SKC,0.04,VWS V14.01,2013-03-08 18:34:00,
2013-03-08 12:39:00,35.2,20.3,30.26,East,91,6.4,10.5,54,0.04,,SKC,0.04,VWS V14.01,2013-03-08 18:39:00,
2013-03-08 12:44:00,35.1,19.7,30.26,SE,127,7.2,7.2,53,0.00,,SKC,0.04,VWS V14.01,2013-03-08 18:44:00,
2013-03-08 12:49:00,35.4,20.0,30.26,ESE,115,13.7,13.7,53,0.00,,SKC,0.04,VWS V14.01,2013-03-08 18:49:00,
2013-03-08 12:54:00,35.2,19.8,30.26,SE,140,12.9,12.9,53,0.00,,SKC,0.04,VWS V14.01,2013-03-08 18:54:00,
2013-03-08 12:59:00,35.4,20.0,30.26,SE,133,10.5,10.5,53,0.00,,SKC,0.04,VWS V14.01,2013-03-08 18:59:00,
2013-03-08 13:04:00,36.3,20.4,30.26,SE,127,10.5,13.7,52,0.00,,SKC,0.04,VWS V14.01,2013-03-08 19:04:00,
2013-03-08 13:09:00,36.0,20.1,30.26,SSE,154,4.0,10.5,52,0.00,,SKC,0.04,VWS V14.01,2013-03-08 19:09:00,
2013-03-08 13:14:00,36.3,19.9,30.26,ESE,108,11.3,11.3,51,0.00,,SKC,0.04,VWS V14.01,2013-03-08 19:14:00,
2013-03-08 13:19:00,36.1,19.8,30.26,SE,136,11.3,11.3,51,0.00,,SKC,0.04,VWS V14.01,2013-03-08 19:19:00,
2013-03-08 13:24:00,35.8,19.4,30.23,SSE,156,13.7,14.5,51,0.00,,SKC,0.04,VWS V14.01,2013-03-08 19:24:00,
2013-03-08 13:29:00,36.3,19.9,30.23,ENE,60,0.0,8.9,51,0.00,,SKC,0.04,VWS V14.01,2013-03-08 19:29:00,
2013-03-08 13:34:00,36.5,20.6,30.23,ESE,122,5.6,5.6,52,0.00,,SKC,0.04,VWS V14.01,2013-03-08 19:34:00,
2013-03-08 13:39:00,37.2,20.8,30.23,SE,124,6.4,8.9,51,0.00,,SKC,0.04,VWS V14.01,2013-03-08 19:39:00,
2013-03-08 13:44:00,37.4,20.9,30.23,SE,141,6.4,11.3,51,0.00,,SKC,0.04,VWS V14.01,2013-03-08 19:44:00,
2013-03-08 13:49:00,37.0,20.6,30.26,SE,134,7.2,7.2,51,0.00,,SKC,0.04,VWS V14.01,2013-03-08 19:49:00,
2013-03-08 13:54:00,38.1,21.1,30.26,SE,134,18.1,18.1,50,0.00,,SKC,0.04,VWS V14.01,2013-03-08 19:54:00,
2013-03-08 13:59:00,38.8,21.3,30.26,SE,137,5.6,5.6,49,0.00,,SKC,0.04,VWS V14.01,2013-03-08 19:59:00,
2013-03-08 14:04:00,38.3,20.8,30.23,ESE,112,4.8,10.5,49,0.00,,SKC,0.04,VWS V14.01,2013-03-08 20:04:00,
2013-03-08 14:09:00,37.6,20.2,30.23,SE,139,4.8,14.5,49,0.00,,SKC,0.04,VWS V14.01,2013-03-08 20:09:00,
2013-03-08 14:14:00,37.8,20.3,30.23,SSE,163,7.2,10.5,49,0.00,,SKC,0.04,VWS V14.01,2013-03-08 20:14:00,
2013-03-08 14:19:00,37.4,20.5,30.23,SE,140,18.1,18.1,50,0.00,,SKC,0.04,VWS V14.01,2013-03-08 20:19:00,
2013-03-08 14:24:00,38.5,21.5,30.23,ESE,120,9.7,9.7,50,0.00,,SKC,0.04,VWS V14.01,2013-03-08 20:24:00,
2013-03-08 14:29:00,38.3,21.3,30.23,ESE,121,5.6,5.6,50,0.00,,SKC,0.04,VWS V14.01,2013-03-08 20:29:00,
2013-03-08 14:34:00,37.8,20.8,30.23,ESE,118,14.5,14.5,50,0.00,,SKC,0.04,VWS V14.01,2013-03-08 20:34:00,
2013-03-08 14:39:00,37.6,20.6,30.23,SSE,151,11.3,11.3,50,0.00,,SKC,0.04,VWS V14.01,2013-03-08 20:39:00,
2013-03-08 14:44:00,37.4,20.5,30.23,SSE,147,9.7,9.7,50,0.00,,SKC,0.04,VWS V14.01,2013-03-08 20:44:00,
2013-03-08 14:49:00,37.6,21.1,30.23,ESE,103,14.9,16.5,51,0.00,,SKC,0.04,VWS V14.01,2013-03-08 20:49:00,
2013-03-08 14:54:00,37.9,21.4,30.23,SE,137,9.7,9.7,51,0.00,,SKC,0.04,VWS V14.01,2013-03-08 20:54:00,
2013-03-08 14:59:00,37.8,21.3,30.23,SE,144,7.2,11.3,51,0.00,,SKC,0.04,VWS V14.01,2013-03-08 20:59:00,
2013-03-08 15:04:00,37.9,21.0,30.23,SE,129,10.5,17.3,50,0.00,,SKC,0.04,VWS V14.01,2013-03-08 21:04:00,
2013-03-08 15:09:00,37.6,21.1,30.23,SE,126,4.0,10.5,51,0.00,,SKC,0.04,VWS V14.01,2013-03-08 21:09:00,
2013-03-08 15:14:00,38.5,21.5,30.23,SSE,151,6.4,9.7,50,0.00,,SKC,0.04,VWS V14.01,2013-03-08 21:14:00,
2013-03-08 15:19:00,38.5,21.9,30.23,ESE,113,5.6,5.6,51,0.00,,SKC,0.04,VWS V14.01,2013-03-08 21:19:00,
2013-03-08 15:24:00,39.4,21.8,30.23,SE,128,10.5,10.5,49,0.00,,SKC,0.04,VWS V14.01,2013-03-08 21:24:00,
2013-03-08 15:29:00,38.5,21.5,30.23,ESE,122,8.9,10.5,50,0.00,,SKC,0.04,VWS V14.01,2013-03-08 21:29:00,
2013-03-08 15:34:00,38.5,21.5,30.23,SE,128,7.2,13.7,50,0.00,,SKC,0.04,VWS V14.01,2013-03-08 21:34:00,
2013-03-08 15:39:00,38.3,21.3,30.23,East,79,8.9,14.5,50,0.00,,SKC,0.04,VWS V14.01,2013-03-08 21:39:00,
2013-03-08 15:44:00,38.3,21.3,30.23,SE,136,12.1,15.7,50,0.00,,SKC,0.04,VWS V14.01,2013-03-08 21:44:00,
2013-03-08 15:49:00,38.5,21.5,30.23,SSE,158,7.2,13.7,50,0.00,,SKC,0.04,VWS V14.01,2013-03-08 21:49:00,
2013-03-08 15:54:00,38.5,21.5,30.23,ESE,106,6.4,13.7,50,0.00,,SKC,0.04,VWS V14.01,2013-03-08 21:54:00,
2013-03-08 16:00:00,38.1,21.6,30.23,SE,140,9.7,11.3,51,0.00,,SKC,0.04,VWS V14.01,2013-03-08 22:00:00,
2013-03-08 16:05:00,37.9,21.4,30.23,East,101,7.2,19.7,51,0.00,,SKC,0.04,VWS V14.01,2013-03-08 22:05:00,
2013-03-08 16:10:00,37.4,21.4,30.23,SE,124,7.2,7.2,52,0.00,,SKC,0.04,VWS V14.01,2013-03-08 22:10:00,
2013-03-08 16:15:00,36.9,21.8,30.23,SE,143,6.4,6.4,54,0.00,,SKC,0.04,VWS V14.01,2013-03-08 22:15:00,
2013-03-08 16:20:00,36.7,22.0,30.23,ESE,114,7.2,11.3,55,0.00,,SKC,0.04,VWS V14.01,2013-03-08 22:20:00,
2013-03-08 16:25:00,35.8,22.0,30.23,SE,130,11.3,11.3,57,0.00,,SKC,0.04,VWS V14.01,2013-03-08 22:25:00,
2013-03-08 16:30:00,35.8,22.5,30.23,ESE,106,0.0,4.8,58,0.00,,SKC,0.04,VWS V14.01,2013-03-08 22:30:00,
2013-03-08 16:35:00,35.8,22.0,30.20,East,83,5.6,8.9,57,0.00,,SKC,0.04,VWS V14.01,2013-03-08 22:35:00,
2013-03-08 16:40:00,35.8,22.5,30.20,SE,128,15.7,15.7,58,0.00,,SKC,0.04,VWS V14.01,2013-03-08 22:40:00,
2013-03-08 16:45:00,35.8,22.5,30.20,ESE,105,7.2,10.5,58,0.00,,SKC,0.04,VWS V14.01,2013-03-08 22:45:00,
2013-03-08 16:50:00,34.7,22.2,30.20,ESE,110,7.2,9.7,60,0.00,,SKC,0.04,VWS V14.01,2013-03-08 22:50:00,
2013-03-08 16:55:00,34.7,22.6,30.20,SE,127,6.4,9.7,61,0.00,,SKC,0.04,VWS V14.01,2013-03-08 22:55:00,
2013-03-08 17:00:00,34.5,22.9,30.20,SE,145,9.7,9.7,62,0.00,,SKC,0.04,VWS V14.01,2013-03-08 23:00:00,
2013-03-08 17:05:00,34.9,23.2,30.20,SE,137,12.9,13.7,62,0.00,,SKC,0.04,VWS V14.01,2013-03-08 23:05:00,
2013-03-08 17:10:00,34.3,22.7,30.20,SE,143,8.9,10.5,62,0.00,,SKC,0.04,VWS V14.01,2013-03-08 23:10:00,
2013-03-08 17:15:00,34.3,23.1,30.20,ESE,108,14.9,14.9,63,0.00,,SKC,0.04,VWS V14.01,2013-03-08 23:15:00,
2013-03-08 17:20:00,34.2,23.3,30.20,ESE,111,9.7,14.5,64,0.00,,SKC,0.04,VWS V14.01,2013-03-08 23:20:00,
2013-03-08 17:25:00,34.2,23.3,30.20,SE,139,4.8,4.8,64,0.00,,SKC,0.04,VWS V14.01,2013-03-08 23:25:00,
2013-03-08 17:30:00,34.0,23.5,30.20,SSE,149,11.3,12.1,65,0.00,,SKC,0.04,VWS V14.01,2013-03-08 23:30:00,
2013-03-08 17:35:00,34.0,23.5,30.20,SE,146,11.3,11.3,65,0.00,,SKC,0.04,VWS V14.01,2013-03-08 23:35:00,
2013-03-08 17:40:00,33.8,23.7,30.20,SE,139,10.5,14.5,66,0.00,,SKC,0.04,VWS V14.01,2013-03-08 23:40:00,
2013-03-08 17:45:00,33.8,24.0,30.20,ESE,102,18.1,18.1,67,0.00,,SKC,0.04,VWS V14.01,2013-03-08 23:45:00,
2013-03-08 17:50:00,33.6,24.2,30.20,SSE,152,9.7,10.5,68,0.00,,SKC,0.04,VWS V14.01,2013-03-08 23:50:00,
2013-03-08 17:55:00,33.6,24.2,30.20,SSE,156,6.4,10.5,68,0.00,,SKC,0.04,VWS V14.01,2013-03-08 23:55:00,
2013-03-08 18:01:00,33.6,24.2,30.20,East,85,10.5,10.5,68,0.00,,SKC,0.04,VWS V14.01,2013-03-09 00:01:00,
2013-03-08 18:06:00,33.4,24.4,30.20,ESE,104,9.7,10.5,69,0.00,,SKC,0.04,VWS V14.01,2013-03-09 00:06:00,
2013-03-08 18:11:00,33.3,24.2,30.20,SE,135,8.9,8.9,69,0.00,,SKC,0.04,VWS V14.01,2013-03-09 00:11:00,
2013-03-08 18:16:00,33.3,24.2,30.20,East,101,4.8,4.8,69,0.00,,SKC,0.04,VWS V14.01,2013-03-09 00:16:00,
2013-03-08 18:21:00,33.3,24.5,30.17,SSE,149,14.9,18.1,70,0.00,,SKC,0.04,VWS V14.01,2013-03-09 00:21:00,
2013-03-08 18:26:00,33.1,24.4,30.17,SE,133,18.9,18.9,70,0.00,,SKC,0.04,VWS V14.01,2013-03-09 00:26:00,
2013-03-08 18:31:00,33.1,24.4,30.17,NE,45,6.4,6.4,70,0.00,,SKC,0.04,VWS V14.01,2013-03-09 00:31:00,
2013-03-08 18:36:00,33.1,24.4,30.17,East,91,7.2,18.9,70,0.00,,SKC,0.04,VWS V14.01,2013-03-09 00:36:00,
2013-03-08 18:41:00,33.1,24.7,30.17,East,92,9.7,13.7,71,0.00,,SKC,0.04,VWS V14.01,2013-03-09 00:41:00,
2013-03-08 18:46:00,32.9,24.5,30.17,SSE,147,7.2,9.7,71,0.00,,SKC,0.04,VWS V14.01,2013-03-09 00:46:00,
2013-03-08 18:51:00,32.9,24.2,30.17,SE,144,9.7,12.9,70,0.00,,SKC,0.04,VWS V14.01,2013-03-09 00:51:00,
2013-03-08 18:56:00,32.9,24.2,30.17,SE,127,10.5,14.5,70,0.00,,SKC,0.04,VWS V14.01,2013-03-09 00:56:00,
2013-03-08 19:01:00,33.1,24.4,30.17,ESE,120,18.1,22.1,70,0.00,,SKC,0.04,VWS V14.01,2013-03-09 01:01:00,
2013-03-08 19:06:00,33.1,24.4,30.17,ESE,106,10.5,14.5,70,0.00,,SKC,0.04,VWS V14.01,2013-03-09 01:06:00,
2013-03-08 19:11:00,33.1,24.0,30.17,ESE,108,11.3,13.7,69,0.00,,SKC,0.04,VWS V14.01,2013-03-09 01:11:00,
2013-03-08 19:16:00,32.9,24.2,30.17,ESE,117,11.3,14.5,70,0.00,,SKC,0.04,VWS V14.01,2013-03-09 01:16:00,
2013-03-08 19:21:00,32.9,24.2,30.17,SE,143,11.3,13.7,70,0.00,,SKC,0.04,VWS V14.01,2013-03-09 01:21:00,
2013-03-08 19:26:00,32.9,24.2,30.17,ESE,120,5.6,14.9,70,0.00,,SKC,0.04,VWS V14.01,2013-03-09 01:26:00,
2013-03-08 19:31:00,32.7,23.7,30.17,SE,139,7.2,10.5,69,0.00,,SKC,0.04,VWS V14.01,2013-03-09 01:31:00,
2013-03-08 19:36:00,32.7,23.7,30.14,SE,139,7.2,14.5,69,0.00,,SKC,0.04,VWS V14.01,2013-03-09 01:36:00,
2013-03-08 19:41:00,32.7,23.7,30.14,SE,136,11.3,11.3,69,0.00,,SKC,0.04,VWS V14.01,2013-03-09 01:41:00,
2013-03-08 19:46:00,32.7,23.7,30.14,SE,133,14.9,14.9,69,0.00,,SKC,0.04,VWS V14.01,2013-03-09 01:46:00,
2013-03-08 19:51:00,32.7,23.7,30.14,SSE,161,13.7,13.7,69,0.00,,SKC,0.04,VWS V14.01,2013-03-09 01:51:00,
2013-03-08 19:56:00,32.7,23.7,30.14,ESE,103,13.7,14.5,69,0.00,,SKC,0.04,VWS V14.01,2013-03-09 01:56:00,
2013-03-08 20:01:00,32.9,23.5,30.14,East,88,13.7,14.9,68,0.00,,SKC,0.04,VWS V14.01,2013-03-09 02:01:00,
2013-03-08 20:07:00,33.1,23.7,30.14,SSE,163,7.2,27.0,68,0.00,,SKC,0.04,VWS V14.01,2013-03-09 02:07:00,
2013-03-08 20:11:00,33.1,23.3,30.14,SSE,154,12.9,18.1,67,0.00,,SKC,0.04,VWS V14.01,2013-03-09 02:11:00,
2013-03-08 20:17:00,32.9,23.5,30.14,SE,137,18.1,18.1,68,0.00,,SKC,0.04,VWS V14.01,2013-03-09 02:17:00,
2013-03-08 20:22:00,32.9,23.5,30.14,East,92,7.2,11.3,68,0.00,,SKC,0.04,VWS V14.01,2013-03-09 02:22:00,
2013-03-08 20:27:00,32.7,23.3,30.14,SE,136,10.5,10.5,68,0.00,,SKC,0.04,VWS V14.01,2013-03-09 02:27:00,
2013-03-08 20:32:00,32.9,23.5,30.14,ESE,123,18.1,18.1,68,0.00,,SKC,0.04,VWS V14.01,2013-03-09 02:32:00,
2013-03-08 20:37:00,32.9,23.5,30.14,SSE,162,6.4,6.4,68,0.00,,SKC,0.04,VWS V14.01,2013-03-09 02:37:00,
2013-03-08 20:42:00,32.7,23.3,30.14,SE,145,9.7,9.7,68,0.00,,SKC,0.04,VWS V14.01,2013-03-09 02:42:00,
2013-03-08 20:47:00,32.9,23.5,30.14,ESE,116,8.1,8.1,68,0.00,,SKC,0.04,VWS V14.01,2013-03-09 02:47:00,
2013-03-08 20:52:00,32.9,23.5,30.14,SE,132,8.9,8.9,68,0.00,,SKC,0.04,VWS V14.01,2013-03-09 02:52:00,
2013-03-08 20:57:00,32.7,23.3,30.14,ESE,114,4.8,5.6,68,0.00,,SKC,0.04,VWS V14.01,2013-03-09 02:57:00,
2013-03-08 21:02:00,33.1,24.0,30.14,ESE,118,5.6,6.4,69,0.00,,SKC,0.04,VWS V14.01,2013-03-09 03:02:00,
2013-03-08 21:07:00,33.3,23.5,30.14,SSE,150,17.3,17.3,67,0.00,,SKC,0.04,VWS V14.01,2013-03-09 03:07:00,
2013-03-08 21:12:00,33.4,23.0,30.14,East,85,6.4,8.9,65,0.00,,SKC,0.04,VWS V14.01,2013-03-09 03:12:00,
2013-03-08 21:17:00,33.6,22.8,30.14,ESE,122,4.8,4.8,64,0.00,,SKC,0.04,VWS V14.01,2013-03-09 03:17:00,
2013-03-08 21:22:00,33.6,22.8,30.14,SE,134,8.9,15.7,64,0.00,,SKC,0.04,VWS V14.01,2013-03-09 03:22:00,
2013-03-08 21:27:00,33.6,22.8,30.14,South,174,15.7,15.7,64,0.00,,SKC,0.04,VWS V14.01,2013-03-09 03:27:00,
2013-03-08 21:32:00,33.6,23.1,30.14,SSE,147,13.7,13.7,65,0.00,,SKC,0.04,VWS V14.01,2013-03-09 03:32:00,
2013-03-08 21:37:00,33.6,22.8,30.14,SE,141,0.0,7.2,64,0.00,,SKC,0.04,VWS V14.01,2013-03-09 03:37:00,
2013-03-08 21:42:00,33.6,23.1,30.14,SSE,152,9.7,9.7,65,0.00,,SKC,0.04,VWS V14.01,2013-03-09 03:42:00,
2013-03-08 21:47:00,33.6,22.8,30.14,SSE,153,9.7,14.5,64,0.00,,SKC,0.04,VWS V14.01,2013-03-09 03:47:00,
2013-03-08 21:52:00,33.6,22.8,30.14,SSE,150,5.6,7.2,64,0.00,,SKC,0.04,VWS V14.01,2013-03-09 03:52:00,
2013-03-08 21:57:00,33.6,23.1,30.14,East,89,13.7,14.9,65,0.00,,SKC,0.04,VWS V14.01,2013-03-09 03:57:00,
2013-03-08 22:02:00,33.4,23.0,30.14,ESE,122,6.4,11.3,65,0.00,,SKC,0.04,VWS V14.01,2013-03-09 04:02:00,
2013-03-08 22:07:00,33.3,23.1,30.14,SE,127,6.4,14.5,66,0.00,,SKC,0.04,VWS V14.01,2013-03-09 04:07:00,
2013-03-08 22:12:00,33.3,23.5,30.14,ESE,117,8.9,18.1,67,0.00,,SKC,0.04,VWS V14.01,2013-03-09 04:12:00,
2013-03-08 22:17:00,33.1,23.3,30.14,SE,129,14.5,14.5,67,0.00,,SKC,0.04,VWS V14.01,2013-03-09 04:17:00,
2013-03-08 22:22:00,33.1,23.7,30.14,SE,133,11.3,14.5,68,0.00,,SKC,0.04,VWS V14.01,2013-03-09 04:22:00,
2013-03-08 22:27:00,32.9,23.5,30.14,SSE,148,7.2,9.7,68,0.00,,SKC,0.04,VWS V14.01,2013-03-09 04:27:00,
2013-03-08 22:32:00,32.9,23.9,30.14,SSE,149,6.4,11.3,69,0.00,,SKC,0.04,VWS V14.01,2013-03-09 04:32:00,
2013-03-08 22:37:00,32.9,24.2,30.14,SSE,153,10.5,15.7,70,0.00,,SKC,0.04,VWS V14.01,2013-03-09 04:37:00,
2013-03-08 22:42:00,32.7,24.0,30.14,SE,137,8.9,9.7,70,0.00,,SKC,0.04,VWS V14.01,2013-03-09 04:42:00,
2013-03-08 22:47:00,32.7,24.0,30.14,SE,137,0.0,7.2,70,0.00,,SKC,0.04,VWS V14.01,2013-03-09 04:47:00,
2013-03-08 22:52:00,32.9,24.5,30.11,SE,128,4.8,7.2,71,0.00,,SKC,0.04,VWS V14.01,2013-03-09 04:52:00,
2013-03-08 22:57:00,33.1,25.0,30.11,East,86,5.6,11.3,72,0.00,,SKC,0.04,VWS V14.01,2013-03-09 04:57:00,
2013-03-08 23:00:00,33.1,25.0,30.11,SSE,155,4.8,15.7,72,0.00,,SKC,0.04,VWS V14.01,2013-03-09 05:00:00,
2013-03-08 23:03:00,33.3,25.6,30.11,SE,133,15.7,18.1,73,0.00,,SKC,0.04,VWS V14.01,2013-03-09 05:03:00,
2013-03-08 23:06:00,33.4,25.7,30.11,East,99,10.5,18.9,73,0.00,,SKC,0.04,VWS V14.01,2013-03-09 05:06:00,
2013-03-08 23:11:00,33.6,25.9,30.11,ENE,72,5.6,15.7,73,0.00,,SKC,0.04,VWS V14.01,2013-03-09 05:11:00,
2013-03-08 23:13:00,33.6,25.6,30.11,SE,124,7.2,7.2,72,0.00,,SKC,0.04,VWS V14.01,2013-03-09 05:13:00,
2013-03-08 23:19:00,33.6,25.6,30.11,SSE,150,10.5,15.7,72,0.00,,SKC,0.04,VWS V14.01,2013-03-09 05:19:00,
2013-03-08 23:25:00,33.6,25.6,30.11,ESE,118,10.5,11.3,72,0.00,,SKC,0.04,VWS V14.01,2013-03-09 05:25:00,
2013-03-08 23:31:00,33.6,25.9,30.11,SE,137,11.3,11.3,73,0.00,,SKC,0.04,VWS V14.01,2013-03-09 05:31:00,
2013-03-08 23:36:00,33.6,25.9,30.11,SE,130,4.8,13.7,73,0.00,,SKC,0.04,VWS V14.01,2013-03-09 05:36:00,
2013-03-08 23:42:00,33.4,26.1,30.11,SE,125,6.4,6.4,74,0.00,,SKC,0.04,VWS V14.01,2013-03-09 05:42:00,
2013-03-08 23:47:00,33.6,26.6,30.11,ENE,76,6.4,10.5,75,0.00,,SKC,0.04,VWS V14.01,2013-03-09 05:47:00,
2013-03-08 23:53:00,33.6,26.6,30.08,ESE,116,6.4,9.7,75,0.00,,SKC,0.04,VWS V14.01,2013-03-09 05:53:00,
2013-03-08 23:58:00,33.6,26.6,30.08,SE,133,13.7,13.7,75,0.00,,SKC,0.04,VWS V14.01,2013-03-09 05:58:00,